Flag for U.S.A. Weather past 2 weeks in Breckenridge, Colorado, U.S.A.

Now
43 °F

Sunny.


Feels Like: 34 °F
Forecast: 46 / 68 °F
Wind: 22 mph from West

Location: Copper Mountain - Red Cliff Pass

Current Time: Sep 1, 2014 at 8:19:48 AM

Latest Report: Sep 1, 2014 at 7:56 AM


Visibility: 10 mi

Pressure: 30.41 "Hg

Humidity: 46%

Dew point: 23 °F

Location of BreckenridgeLocation

Historic Weather in Breckenridge — Graph

°F

Breckenridge temperature yesterday

Maximum temperature yesterday: 55 °F (at 3:36 PM)
Minimum temperature yesterday: 41 °F (at 8:36 AM)
Average temperature yesterday: 49 °F

Past Weeks' High & Low Weather Summary

 TemperatureHumidityPressure
High64 °F (Aug 17, 1:56 PM)93% (Aug 28, 6:56 AM)30.74 "Hg (Aug 28, 6:56 AM)
Low37 °F (Aug 27, 11:36 PM)21% (Aug 17, 4:16 PM)30.32 "Hg (Aug 31, 5:36 PM)
Average49 °F58%30.52 "Hg
* Reported Aug 17 6:36 AM — Sep 1 6:56 AM, Breckenridge, Weather by CustomWeather, © 2014

Note: Actual official high and low records may vary slightly from our data, if they occured in-between our weather recording intervals... More about our weather records

Advertising

Breckenridge weather history for previous 24 hours

 ConditionsComfort  
Time TempWeatherWind HumidityBarometerVisibility
6:56 AM
Sep 1
41 °FClear.20 mph42%30.41 "Hg10 mi
6:36 AM41 °FClear.16 mph42%30.40 "Hg10 mi
5:56 AM41 °FClear.10 mph45%30.40 "Hg10 mi
5:36 AM41 °FClear.15 mph49%30.40 "Hg10 mi
5:16 AM41 °FClear.10 mph57%30.40 "Hg10 mi
4:56 AM43 °FClear.12 mph53%30.40 "Hg10 mi
4:36 AM45 °FClear.12 mph49%30.40 "Hg10 mi
4:16 AM45 °FClear.12 mph49%30.40 "Hg10 mi
3:56 AM45 °FClear.7 mph53%30.41 "Hg10 mi
3:36 AM45 °FClear.12 mph53%30.40 "Hg10 mi
2:56 AM45 °FClear.12 mph57%30.41 "Hg10 mi
2:36 AM45 °FClear.18 mph61%30.41 "Hg10 mi
2:16 AM45 °FClear.9 mph61%30.42 "Hg10 mi
1:56 AM45 °FClear.9 mph61%30.42 "Hg10 mi
1:36 AM45 °FClear.8 mph61%30.42 "Hg10 mi
1:16 AM45 °FPassing clouds.13 mph61%30.43 "Hg10 mi
12:56 AM45 °FPassing clouds.9 mph61%30.42 "Hg10 mi
12:36 AM45 °FPartly cloudy.14 mph61%30.42 "Hg10 mi
12:16 AM45 °FPartly cloudy.10 mph61%30.42 "Hg10 mi
11:56 PM
Aug 31
45 °FPartly cloudy.15 mph61%30.41 "Hg10 mi
11:36 PM45 °FPassing clouds.9 mph61%30.41 "Hg10 mi
11:16 PM45 °FPartly cloudy.14 mph61%30.42 "Hg10 mi
10:56 PM45 °FPassing clouds.12 mph61%30.41 "Hg10 mi
10:36 PM45 °FPassing clouds.5 mph61%30.41 "Hg10 mi
9:56 PM46 °FPassing clouds.14 mph57%30.41 "Hg10 mi
9:36 PM46 °FClear.16 mph53%30.41 "Hg10 mi
9:16 PM48 °FPassing clouds.23 mph46%30.40 "Hg10 mi
8:56 PM50 °FPassing clouds.17 mph43%30.39 "Hg10 mi
8:36 PM50 °FScattered clouds.17 mph40%30.39 "Hg10 mi
8:16 PM50 °FSunny.16 mph40%30.38 "Hg10 mi
7:56 PM52 °FSunny.30 mph32%30.37 "Hg10 mi
7:36 PM52 °FSunny.26 mph30%30.37 "Hg10 mi
7:16 PM54 °FSunny.40 mph28%30.35 "Hg10 mi
6:56 PM54 °FSunny.29 mph26%30.38 "Hg10 mi
6:36 PM54 °FSunny.40 mph24%30.35 "Hg10 mi
6:16 PM54 °FScattered clouds.29 mph26%30.38 "Hg10 mi
5:56 PM54 °FBroken clouds.28 mph26%30.36 "Hg10 mi
5:36 PM54 °FBroken clouds.47 mph26%30.32 "Hg10 mi
5:16 PM55 °FBroken clouds.32 mph28%30.35 "Hg10 mi
4:56 PM55 °FBroken clouds.21 mph36%30.36 "Hg10 mi
4:36 PM54 °FBroken clouds.23 mph41%30.36 "Hg10 mi
4:16 PM54 °FBroken clouds.32 mph38%30.35 "Hg10 mi
3:56 PM55 °FBroken clouds.25 mph41%30.36 "Hg10 mi
3:36 PM55 °FMore clouds than sun.17 mph41%30.36 "Hg10 mi
3:16 PM54 °FBroken clouds.15 mph44%30.36 "Hg10 mi
2:56 PM54 °FBroken clouds.14 mph47%30.36 "Hg10 mi
2:36 PM52 °FCloudy.25 mph54%30.37 "Hg10 mi
2:16 PM54 °FBroken clouds.21 mph47%30.36 "Hg10 mi
1:56 PM50 °FLight rain. Cloudy.8 mph50%30.38 "Hg10 mi
1:36 PM46 °FLight rain. Cloudy.13 mph62%30.38 "Hg10 mi
1:16 PM48 °FBroken clouds.15 mph54%30.37 "Hg10 mi
12:56 PM46 °FScattered clouds.16 mph62%30.37 "Hg10 mi
12:36 PM45 °FBroken clouds.21 mph71%30.38 "Hg10 mi
11:56 AM45 °FRain. Mostly cloudy.15 mph71%30.40 "Hg7 mi
11:36 AM45 °FLight rain. Mostly cloudy.13 mph71%30.39 "Hg4 mi
11:16 AM45 °FLight rain. More clouds than sun.13 mph71%30.40 "Hg5 mi
10:56 AM45 °FRain. Cloudy.15 mph71%30.39 "Hg10 mi
10:36 AM45 °FRain. Cloudy.12 mph71%30.39 "Hg10 mi
10:16 AM45 °FRain. Mostly cloudy.10 mph71%30.40 "Hg7 mi
9:56 AM41 °FLight rain. Mostly cloudy.15 mph76%30.39 "Hg5 mi
9:36 AM41 °FRain. Mostly cloudy.17 mph76%30.39 "Hg3 mi
9:16 AM41 °FLight rain. More clouds than sun.9 mph76%30.38 "Hg2 mi
8:56 AM43 °FRain. Cloudy.18 mph71%30.38 "Hg4 mi
8:36 AM41 °FLight rain. Mostly cloudy.13 mph76%30.38 "Hg4 mi
8:16 AM45 °FThundershowers. Mostly cloudy.12 mph66%30.39 "Hg7 mi
Weather by CustomWeather, © 2014

See weather overviewHow to use our weather pages